[[{"header":{"parameterUnit":"m.s-1","parameterCategory":1,"la1":30.2991,"la2":30.254,"lo1":-89.0895,"lo2":-89.0444,"dy":0.0017,"dx":0.0017,"nx":28,"ny":28,"refTime":"2025-12-22T09:00:00:Z","depth":0,"parameterNumber":2,"parameterNumberName":"U-component_of_WINDS"},"data":[0,0,0,0,0,0,0,0,0,0,0,0,0,0,0,0,0,0,0,0,0,0,0,0,0,0,0,0,0,0,0,0,0,0,0,0,0,0,0,0,0,0,0,0,0,0,0,0,0,0,0,0,0,0,0,0,0,0,-2.6888,-2.6889,0,-2.6997,-2.6999,-2.7,-2.702,-2.7019,-2.7018,-2.7017,-2.7133,-2.7137,-2.7141,0,0,0,0,0,0,0,0,0,0,0,0,0,-2.6697,-2.67,-2.6887,-2.6889,-2.689,-2.6997,-2.6999,-2.7,-2.702,-2.7019,-2.7018,-2.7017,-2.7132,-2.7136,-2.7141,0,0,0,0,0,0,0,0,0,0,0,0,0,-2.6791,-2.6702,-2.6887,-2.6913,-2.6916,-2.6997,-2.6999,-2.7001,-2.7021,-2.7019,-2.7018,-2.7017,-2.713,-2.7136,-2.7142,-2.7205,0,0,-2.7159,-2.7162,0,0,0,0,0,0,0,0,-2.6785,-2.6798,-2.6908,-2.6911,-2.6915,-2.6994,-2.6974,-2.7069,-2.7021,-2.6981,-2.7017,-2.7016,-2.7088,-2.7097,-2.7121,-2.721,-2.7215,-2.716,-2.7164,-2.7166,-2.7168,0,0,0,0,0,0,0,-2.6779,-2.6793,-2.6931,-2.6909,-2.6914,-2.692,-2.6932,-2.6992,-2.7041,-2.6984,-2.6986,-2.6999,-2.709,-2.7115,-2.7124,-2.7217,-2.716,-2.7165,-2.7169,-2.7171,-2.7363,-2.7364,0,0,0,0,0,0,-2.6767,-2.6787,-2.6928,-2.6934,-2.6846,-2.6924,-2.6938,-2.697,-2.704,-2.705,-2.7,-2.6999,-2.7106,-2.7117,-2.7128,-2.7205,-2.7166,-2.7172,-2.7175,-2.7361,-2.7363,-2.7365,0,0,0,0,0,0,-2.6763,-2.678,-2.6923,-2.6861,-2.688,-2.6929,-2.6965,-2.6973,-2.6998,-2.7052,-2.7061,-2.7017,-2.7105,-2.7119,-2.7185,-2.7209,-2.7174,-2.718,-2.736,-2.7362,-2.7364,-2.7361,0,0,0,0,0,0,-2.6758,-2.6778,-2.6802,-2.6862,-2.6883,-2.6978,-2.6967,-2.6976,-2.7008,-2.7008,-2.707,-2.7079,-2.7105,-2.7176,-2.7191,-2.7217,-2.7184,-2.7357,-2.7361,-2.7363,-2.7359,-2.7363,-2.7366,0,0,0,0,0,-2.6751,-2.6798,-2.6803,-2.682,-2.6914,-2.6979,-2.6992,-2.702,-2.701,-2.7034,-2.7069,-2.7077,-2.7205,-2.7183,-2.7199,-2.7227,-2.7356,-2.736,-2.7363,-2.7357,-2.7362,-2.7366,0,0,0,0,0,0,-2.6741,-2.6806,-2.6813,-2.688,-2.6924,-2.6982,-2.7014,-2.7024,-2.7072,-2.7071,-2.7105,-2.7119,-2.7182,-2.7212,-2.7186,-2.7292,-2.728,-2.7287,-2.727,-2.7275,-2.7278,-2.7269,-2.7189,0,0,0,0,0,-2.6746,-2.6793,-2.6848,-2.6902,-2.6923,-2.6965,-2.6995,-2.7013,-2.7059,-2.7078,-2.7117,-2.7163,-2.7214,-2.7246,-2.7296,-2.7364,-2.7377,-2.7392,-2.7395,-2.7398,-2.7403,-2.744,-2.7447,-2.7377,-2.7377,-2.7377,0,0,-2.6758,-2.68,-2.6827,-2.6901,-2.6937,-2.6984,-2.6981,-2.7032,-2.7067,-2.7086,-2.7149,-2.718,-2.7234,-2.73,-2.7332,-2.7327,-2.7426,-2.7403,-2.7404,-2.7408,-2.7444,-2.7451,-2.7457,-2.7379,-2.7379,-2.7378,0,0,-2.6804,-2.6841,-2.6889,-2.6925,-2.6978,-2.7006,-2.7017,-2.7075,-2.7095,-2.7159,-2.7174,-2.7218,-2.7304,-2.7341,-2.7372,-2.7431,-2.744,-2.7447,-2.7464,-2.75,-2.7505,-2.751,-2.753,-2.7537,-2.7452,-2.7452,-2.7452,0,-2.6812,-2.6883,-2.6913,-2.6962,-2.6994,-2.7013,-2.7062,-2.7096,-2.7164,-2.7185,-2.7179,-2.7287,-2.7325,-2.7399,-2.7414,-2.7438,-2.7452,-2.7439,-2.7502,-2.7508,-2.7513,-2.7532,-2.7539,-2.7452,-2.7452,-2.7452,-2.7452,0,-2.689,-2.6939,-2.6972,-2.7035,-2.7071,-2.712,-2.7157,-2.719,-2.7206,-2.7234,-2.7298,-2.7344,-2.7403,-2.7422,-2.7439,-2.7499,-2.7495,-2.7495,-2.7483,-2.7519,-2.7537,-2.7545,-2.7453,-2.7452,-2.7452,-2.7452,0,0,-2.6931,-2.7009,-2.7021,-2.7049,-2.711,-2.7149,-2.7199,-2.7255,-2.7282,-2.7329,-2.7371,-2.7444,-2.7444,-2.7478,-2.7499,-2.7531,-2.7573,-2.7527,-2.7529,-2.7532,-2.7641,-2.7639,-2.7647,-2.758,-2.7581,-2.7583,-2.7636,0,-2.6982,-2.7071,-2.7098,-2.7173,-2.7218,-2.7237,-2.7281,-2.7323,-2.7351,-2.7394,-2.7426,-2.7476,-2.7473,-2.7494,-2.7526,-2.756,-2.7595,-2.7558,-2.7619,-2.7621,-2.7603,-2.7657,-2.7654,-2.7702,-2.7643,-2.7645,-2.7646,0,-2.7054,-2.7099,-2.7177,-2.7231,-2.7251,-2.729,-2.7343,-2.7384,-2.7433,-2.7451,-2.7489,-2.7507,-2.756,-2.7547,-2.7621,-2.7595,-2.7622,-2.7643,-2.7646,-2.7651,-2.7634,-2.7661,-2.7719,-2.7725,-2.7658,-2.7657,-2.7656,0,-2.7073,-2.7155,-2.7212,-2.7236,-2.7301,-2.7327,-2.7355,-2.7402,-2.7434,-2.7481,-2.7502,-2.7555,-2.7584,-2.7625,-2.7657,-2.7644,-2.7728,-2.7717,-2.7744,-2.7743,-2.7759,-2.7757,-2.7819,-2.778,-2.778,-2.778,-2.7779,0,-2.7126,-2.7173,-2.7221,-2.7255,-2.7308,-2.734,-2.7392,-2.7422,-2.7464,-2.7505,-2.7526,-2.7564,-2.7605,-2.7649,-2.7675,-2.7731,-2.7745,-2.7761,-2.7767,-2.7758,-2.7755,-2.7774,-2.7771,-2.7782,-2.7781,-2.7781,-2.778,0,-2.7156,-2.719,-2.7253,-2.7309,-2.7324,-2.736,-2.7409,-2.7443,-2.7472,-2.7524,-2.7538,-2.7584,-2.7636,-2.7673,-2.7741,-2.7759,-2.7819,-2.7826,-2.7802,-2.7804,-2.7828,-2.7825,-2.7903,-2.7915,-2.7869,-2.787,-2.787,0,-2.7186,-2.7222,-2.7282,-2.731,-2.7338,-2.7384,-2.7416,-2.7449,-2.7482,-2.7539,-2.7567,-2.7621,-2.7665,-2.7749,-2.7789,-2.7841,-2.7848,-2.7872,-2.7856,-2.7845,-2.7846,-2.7843,-2.7846,-2.7874,-2.7874,-2.7874,-2.7875,0,-2.7236,-2.7251,-2.7295,-2.7346,-2.7383,-2.7424,-2.7466,-2.7489,-2.7529,-2.7565,-2.7618,-2.7653,-2.7722,-2.7775,-2.7831,-2.7861,-2.7875,-2.788,-2.7888,-2.7878,-2.7862,-2.7869,-2.7806,-2.7877,-2.7877,-2.7877,-2.7877,-2.7876,-2.7266,-2.7298,-2.7344,-2.7393,-2.7428,-2.7466,-2.7501,-2.7533,-2.7578,-2.7635,-2.7653,-2.7708,-2.7756,-2.7832,-2.7864,-2.7908,-2.7906,-2.7919,-2.7922,-2.7924,-2.7923,-2.7856,-2.7919,-2.7919,-2.7919,-2.7919,-2.7919,0,-2.7315,-2.7346,-2.739,-2.7447,-2.7485,-2.7494,-2.754,-2.7572,-2.762,-2.7662,-2.7705,-2.7766,-2.7818,-2.7862,-2.7915,-2.7942,-2.795,-2.7955,-2.7952,-2.7959,-2.7922,-2.7908,-2.7948,-2.7948,-2.7948,-2.7948,-2.7948,-2.7948,-2.7345,-2.7399,-2.742,-2.7491,-2.7522,-2.7575,-2.7601,-2.7636,-2.767,-2.7737,-2.7779,-2.7807,-2.785,-2.7907,-2.7955,-2.7966,-2.7984,-2.7988,-2.8001,-2.7965,-2.7962,-2.7958,-2.7945,-2.7992,-2.7992,-2.8033,-2.8034,-2.8034]},{"header":{"parameterUnit":"m.s-1","parameterCategory":1,"la1":30.2991,"la2":30.254,"lo1":-89.0895,"lo2":-89.0444,"dy":0.0017,"dx":0.0017,"nx":28,"ny":28,"refTime":"2025-12-22T09:00:00:Z","depth":0,"parameterNumber":3,"parameterNumberName":"V-component_of_WINDS"},"data":[0,0,0,0,0,0,0,0,0,0,0,0,0,0,0,0,0,0,0,0,0,0,0,0,0,0,0,0,0,0,0,0,0,0,0,0,0,0,0,0,0,0,0,0,0,0,0,0,0,0,0,0,0,0,0,0,0,0,1.0095,1.0097,0,1.0307,1.0309,1.0312,1.0405,1.0405,1.0404,1.0404,1.063,1.0636,1.0642,0,0,0,0,0,0,0,0,0,0,0,0,0,0.9778,0.9783,1.0094,1.0097,1.01,1.0307,1.0309,1.0312,1.0405,1.0405,1.0404,1.0404,1.0628,1.0635,1.0643,0,0,0,0,0,0,0,0,0,0,0,0,0,0.9945,0.9785,1.0094,1.0171,1.018,1.0306,1.031,1.0313,1.0405,1.0405,1.0404,1.0404,1.0625,1.0635,1.0644,1.0712,0,0,1.0673,1.0677,0,0,0,0,0,0,0,0,0.9936,0.9957,1.0157,1.0166,1.0176,1.0329,1.0281,1.0447,1.0405,1.032,1.0404,1.0403,1.0531,1.0548,1.0589,1.0723,1.0733,1.0674,1.068,1.0684,1.0686,0,0,0,0,0,0,0,0.9924,0.9948,1.0179,1.016,1.0171,1.0197,1.0221,1.0313,1.0426,1.0327,1.0334,1.0358,1.0536,1.058,1.0595,1.0736,1.0673,1.0682,1.0688,1.0691,1.0939,1.094,0,0,0,0,0,0,0.9898,0.9938,1.0172,1.0185,1.0052,1.0203,1.0229,1.028,1.0425,1.0446,1.0358,1.0361,1.0564,1.0584,1.0603,1.0695,1.0684,1.0692,1.0698,1.0939,1.094,1.0941,0,0,0,0,0,0,0.9891,0.9918,1.0164,1.0064,1.0097,1.0209,1.0266,1.0285,1.0329,1.0448,1.047,1.0381,1.0564,1.059,1.0685,1.0704,1.0697,1.0705,1.0937,1.0939,1.094,1.0876,0,0,0,0,0,0,0.9882,0.9915,0.994,1.0063,1.0102,1.0238,1.0267,1.0289,1.0344,1.035,1.0476,1.0496,1.0566,1.067,1.0694,1.0717,1.0713,1.0936,1.0938,1.094,1.0877,1.0875,1.0874,0,0,0,0,0,0.987,0.9916,0.9941,0.9969,1.0135,1.0239,1.0261,1.0338,1.0345,1.0373,1.045,1.0492,1.0697,1.0679,1.0707,1.0733,1.0936,1.0938,1.094,1.0878,1.0876,1.0874,0,0,0,0,0,0,0.9795,0.9933,0.9963,1.0049,1.0131,1.0254,1.0292,1.0333,1.0417,1.042,1.0514,1.0542,1.0628,1.069,1.0667,1.0808,1.082,1.0828,1.0764,1.0763,1.0761,1.0745,1.0721,0,0,0,0,0,0.9788,0.9858,0.9976,1.0041,1.008,1.0178,1.0227,1.0278,1.0369,1.0405,1.0489,1.0577,1.0662,1.0716,1.08,1.0886,1.0917,1.0918,1.0916,1.0914,1.092,1.0973,1.0976,1.0947,1.0947,1.0947,0,0,0.9775,0.9859,0.9898,1.0028,1.0098,1.0171,1.0207,1.0283,1.034,1.0417,1.0511,1.0576,1.0681,1.0772,1.0816,1.0826,1.0935,1.0917,1.0914,1.0922,1.0975,1.0978,1.098,1.0949,1.0948,1.0948,0,0,0.9789,0.9859,0.9921,0.9989,1.0094,1.0159,1.0173,1.0291,1.0336,1.0431,1.0491,1.0561,1.0704,1.0777,1.0832,1.0874,1.0917,1.0899,1.089,1.094,1.0943,1.0945,1.0962,1.0967,1.0904,1.0904,1.0904,0,0.9761,0.9871,0.9948,1.0021,1.0077,1.0147,1.0213,1.0277,1.0404,1.0443,1.0451,1.0633,1.0708,1.0818,1.0828,1.087,1.0892,1.0886,1.0935,1.0939,1.0942,1.096,1.0965,1.0901,1.0902,1.0902,1.0902,0,0.9832,0.9908,0.9946,1.0064,1.0125,1.0193,1.0283,1.0336,1.0382,1.0447,1.0544,1.0637,1.0742,1.0772,1.0819,1.0889,1.0892,1.0916,1.0932,1.0941,1.0959,1.0966,1.0897,1.0898,1.0899,1.09,0,0,0.9807,0.9965,0.9978,1.0033,1.0153,1.0215,1.0287,1.0387,1.0432,1.0517,1.0583,1.0702,1.0725,1.0788,1.0844,1.0888,1.0917,1.0908,1.0912,1.0908,1.1003,1.0985,1.0992,1.0946,1.0948,1.0949,1.0995,0,0.9839,0.9968,1.004,1.0141,1.0214,1.0282,1.0346,1.0428,1.049,1.0563,1.0634,1.0718,1.0741,1.078,1.0826,1.0904,1.0938,1.0901,1.1011,1.1014,1.0984,1.1001,1.0982,1.1021,1.1002,1.1004,1.1005,0,0.9893,0.9975,1.0082,1.0194,1.0228,1.0283,1.0381,1.0449,1.0545,1.0588,1.0657,1.0713,1.0795,1.0802,1.0919,1.0892,1.0942,1.0987,1.099,1.1005,1.1011,1.1018,1.1036,1.1042,1.1016,1.1015,1.1014,0,0.9865,1.0003,1.0085,1.013,1.0262,1.03,1.0358,1.0453,1.0508,1.0595,1.0633,1.0728,1.0782,1.0856,1.0937,1.0934,1.1047,1.106,1.1088,1.1086,1.111,1.1108,1.1137,1.1138,1.1138,1.1138,1.1138,0,0.9895,0.9959,1.0074,1.0125,1.0199,1.0282,1.0355,1.0418,1.0502,1.0569,1.0634,1.0696,1.0798,1.0874,1.0938,1.1027,1.105,1.1089,1.1106,1.1085,1.108,1.112,1.112,1.1139,1.1139,1.1139,1.1138,0,0.9877,0.9957,1.0051,1.0168,1.0199,1.0249,1.0351,1.0405,1.047,1.0554,1.0579,1.0683,1.0776,1.0863,1.0988,1.1031,1.1121,1.1141,1.1087,1.1097,1.112,1.1117,1.1178,1.1192,1.118,1.118,1.118,0,0.9891,0.9941,1.0063,1.0111,1.0166,1.0243,1.0299,1.0383,1.044,1.0553,1.0594,1.069,1.0772,1.0918,1.1007,1.1103,1.1128,1.1143,1.1143,1.112,1.1131,1.1128,1.1135,1.1141,1.1141,1.1141,1.1141,0,0.9909,0.9945,1.0022,1.0114,1.0179,1.0256,1.0335,1.0371,1.0471,1.0532,1.0626,1.0689,1.0815,1.0912,1.1018,1.1081,1.1129,1.1139,1.1151,1.1131,1.1099,1.1119,1.1085,1.1138,1.1138,1.1139,1.1139,1.1139,0.9909,0.9957,1.005,1.0135,1.0202,1.0275,1.0331,1.0403,1.0481,1.0588,1.0634,1.073,1.0827,1.0974,1.1036,1.1115,1.1126,1.1142,1.1147,1.115,1.1147,1.1084,1.1134,1.1134,1.1135,1.1135,1.1135,0,0.9932,0.9994,1.0071,1.0178,1.0245,1.028,1.037,1.0425,1.0507,1.0592,1.067,1.0779,1.0873,1.0969,1.1069,1.1114,1.1138,1.1137,1.1136,1.1151,1.113,1.1111,1.1116,1.1116,1.1116,1.1116,1.1116,1.1116,0.9951,1.0035,1.0083,1.0202,1.0266,1.0357,1.0406,1.0474,1.0542,1.066,1.0737,1.0797,1.0888,1.0995,1.1084,1.111,1.1145,1.1139,1.1171,1.1151,1.1152,1.1153,1.1135,1.1145,1.1145,1.1186,1.1186,1.1186]}]]